When you browse on this site, cookies collect data to enhance your experience and personalize the content and advertising you see.
Visit our Privacy Policy to learn more. By continuing to use the site, you agree to this use of cookies and data.
  • In Sweden
  • List of Countries
  • For 7 days
  • Water Temperature
  • Weather Map
  • Weather Widgets
  • user-avatar
    Login

    Hourly Weather Baleyara

    Today, 29 May, Friday

    Time Temperature Precipitation Wind Pressure Humidity
    00:00 +36°C° 0 mm 3 mps 737 mmHg 28%
    01:00 +35°C° 0 mm 3 mps 737 mmHg 29%
    02:00 +35°C° 0 mm 3 mps 737 mmHg 30%
    03:00 +34°C° 0 mm 3 mps 736 mmHg 31%
    04:00 +34°C° 0 mm 3 mps 737 mmHg 31%
    05:00 +34°C° 0 mm 3 mps 737 mmHg 32%
    06:00 +34°C° 0 mm 3 mps 737 mmHg 32%
    07:00 +35°C° 0 mm 4 mps 738 mmHg 29%
    08:00 +37°C° 0 mm 5 mps 738 mmHg 26%
    09:00 +40°C° 0 mm 6 mps 738 mmHg 23%
    10:00 +41°C° 0 mm 5 mps 738 mmHg 20%
    11:00 +42°C° 0 mm 5 mps 737 mmHg 18%
    12:00 +45°C° 0 mm 5 mps 736 mmHg 16%
    13:00 +45°C° 0 mm 5 mps 736 mmHg 15%
    14:00 +45°C° 0 mm 4 mps 735 mmHg 13%
    15:00 +45°C° 0 mm 3 mps 734 mmHg 12%
    16:00 +45°C° 0 mm 3 mps 734 mmHg 13%
    17:00 +43°C° 0 mm 2 mps 734 mmHg 13%
    18:00 +43°C° 0 mm 2 mps 734 mmHg 14%
    19:00 +42°C° 0 mm 2 mps 734 mmHg 15%
    20:00 +41°C° 0 mm 2 mps 735 mmHg 15%
    21:00 +40°C° 0 mm 2 mps 735 mmHg 16%
    22:00 +40°C° 0 mm 2 mps 735 mmHg 17%
    23:00 +39°C° 0 mm 2 mps 735 mmHg 18%

    Tomorrow, 30 May, Saturday

    Time Temperature Precipitation Wind Pressure Humidity
    00:00 +38°C° 0 mm 2 mps 735 mmHg 18%
    01:00 +38°C° 0 mm 2 mps 735 mmHg 20%
    02:00 +37°C° 0 mm 2 mps 735 mmHg 22%
    03:00 +36°C° 0 mm 3 mps 735 mmHg 24%
    04:00 +36°C° 0 mm 4 mps 735 mmHg 26%
    05:00 +35°C° 0 mm 5 mps 736 mmHg 28%
    06:00 +35°C° 0 mm 6 mps 736 mmHg 30%
    07:00 +36°C° 0 mm 6 mps 736 mmHg 29%
    08:00 +38°C° 0 mm 7 mps 737 mmHg 28%
    09:00 +39°C° 0 mm 7 mps 737 mmHg 27%
    10:00 +41°C° 0 mm 7 mps 737 mmHg 24%
    11:00 +44°C° 0 mm 6 mps 736 mmHg 21%
    12:00 +45°C° 0 mm 6 mps 736 mmHg 17%
    13:00 +46°C° 0 mm 5 mps 735 mmHg 16%
    14:00 +45°C° 0 mm 4 mps 735 mmHg 14%
    15:00 +46°C° 0 mm 3 mps 734 mmHg 13%
    16:00 +45°C° 0 mm 2 mps 734 mmHg 13%
    17:00 +45°C° 0 mm 2 mps 734 mmHg 14%
    18:00 +43°C° 0 mm 1 mps 734 mmHg 14%
    19:00 +42°C° 0 mm 2 mps 735 mmHg 16%
    20:00 +42°C° 0 mm 3 mps 735 mmHg 17%
    21:00 +40°C° 0 mm 3 mps 735 mmHg 19%
    22:00 +40°C° 0 mm 3 mps 735 mmHg 21%
    23:00 +40°C° 0 mm 4 mps 736 mmHg 23%

    Day after tomorrow, 31 May, Sunday

    Time Temperature Precipitation Wind Pressure Humidity
    00:00 +38°C° 0 mm 4 mps 736 mmHg 26%
    01:00 +38°C° 0 mm 4 mps 736 mmHg 29%
    02:00 +37°C° 0 mm 5 mps 735 mmHg 32%
    03:00 +36°C° 0 mm 6 mps 735 mmHg 35%
    04:00 +36°C° 0 mm 6 mps 736 mmHg 38%
    05:00 +35°C° 0 mm 6 mps 736 mmHg 41%
    06:00 +34°C° 0 mm 6 mps 736 mmHg 45%
    07:00 +36°C° 0 mm 6 mps 737 mmHg 42%
    08:00 +38°C° 0 mm 7 mps 737 mmHg 39%
    09:00 +39°C° 0 mm 7 mps 738 mmHg 36%
    10:00 +40°C° 0 mm 7 mps 738 mmHg 33%
    11:00 +42°C° 0 mm 6 mps 738 mmHg 29%
    12:00 +44°C° 0 mm 6 mps 737 mmHg 25%
    13:00 +44°C° 0 mm 4 mps 737 mmHg 24%
    14:00 +44°C° 0 mm 3 mps 736 mmHg 22%
    15:00 +45°C° 0 mm 2 mps 735 mmHg 20%
    16:00 +45°C° 0 mm 2 mps 735 mmHg 19%
    17:00 +45°C° 0 mm 2 mps 735 mmHg 18%
    18:00 +43°C° 0 mm 2 mps 735 mmHg 18%
    19:00 +43°C° 0 mm 2 mps 736 mmHg 19%
    20:00 +42°C° 0 mm 2 mps 736 mmHg 20%
    21:00 +41°C° 0 mm 2 mps 737 mmHg 21%
    22:00 +42°C° 0 mm 3 mps 736 mmHg 22%
    23:00 +40°C° 0 mm 3 mps 736 mmHg 24%

    1 June, Monday

    Time Temperature Precipitation Wind Pressure Humidity
    00:00 +40°C° 0 mm 3 mps 736 mmHg 25%
    01:00 +38°C° 0 mm 4 mps 736 mmHg 30%
    02:00 +37°C° 0 mm 5 mps 736 mmHg 35%
    03:00 +36°C° 0 mm 5 mps 735 mmHg 41%
    04:00 +36°C° 0 mm 6 mps 736 mmHg 44%
    05:00 +35°C° 0 mm 6 mps 736 mmHg 47%
    06:00 +35°C° 0 mm 6 mps 737 mmHg 50%
    07:00 +36°C° 0 mm 7 mps 737 mmHg 47%
    08:00 +38°C° 0 mm 7 mps 738 mmHg 44%
    09:00 +39°C° 0 mm 7 mps 738 mmHg 41%
    10:00 +41°C° 0 mm 6 mps 738 mmHg 36%
    11:00 +42°C° 0 mm 6 mps 738 mmHg 32%
    12:00 +45°C° 0 mm 5 mps 737 mmHg 27%
    13:00 +44°C° 0 mm 4 mps 737 mmHg 24%
    14:00 +45°C° 0 mm 2 mps 736 mmHg 21%
    15:00 +45°C° 0 mm 1 mps 735 mmHg 19%
    16:00 +44°C° 0 mm 1 mps 735 mmHg 18%
    17:00 +45°C° 0 mm 2 mps 735 mmHg 18%
    18:00 +45°C° 0 mm 2 mps 735 mmHg 17%
    19:00 +44°C° 0 mm 3 mps 735 mmHg 18%
    20:00 +44°C° 0 mm 3 mps 735 mmHg 19%
    21:00 +43°C° 0 mm 3 mps 736 mmHg 20%
    22:00 +42°C° 0 mm 4 mps 736 mmHg 23%
    23:00 +42°C° 0 mm 5 mps 735 mmHg 25%

    2 June, Tuesday

    Time Temperature Precipitation Wind Pressure Humidity
    00:00 +41°C° 0 mm 5 mps 735 mmHg 28%
    01:00 +40°C° 0 mm 6 mps 735 mmHg 32%
    02:00 +39°C° 0 mm 7 mps 735 mmHg 37%
    03:00 +38°C° 0 mm 7 mps 735 mmHg 41%
    04:00 +37°C° 0 mm 8 mps 735 mmHg 44%
    05:00 +37°C° 0 mm 8 mps 736 mmHg 47%
    06:00 +35°C° 0 mm 8 mps 736 mmHg 50%
    07:00 +37°C° 0 mm 8 mps 737 mmHg 48%
    08:00 +38°C° 0 mm 8 mps 737 mmHg 46%
    09:00 +39°C° 0 mm 8 mps 738 mmHg 44%
    10:00 +40°C° 0 mm 7 mps 737 mmHg 39%
    11:00 +43°C° 0 mm 7 mps 737 mmHg 34%
    12:00 +45°C° 0 mm 6 mps 736 mmHg 29%
    13:00 +45°C° 0 mm 5 mps 736 mmHg 27%
    14:00 +46°C° 0 mm 5 mps 735 mmHg 24%
    15:00 +47°C° 0 mm 4 mps 734 mmHg 21%
    16:00 +46°C° 0 mm 3 mps 734 mmHg 21%
    17:00 +45°C° 0 mm 3 mps 734 mmHg 20%
    18:00 +45°C° 0 mm 2 mps 734 mmHg 19%
    19:00 +44°C° 0 mm 4 mps 734 mmHg 23%
    20:00 +43°C° 0 mm 5 mps 735 mmHg 26%
    21:00 +42°C° 0 mm 6 mps 735 mmHg 29%
    22:00 +41°C° 0 mm 6 mps 735 mmHg 31%
    23:00 +41°C° 0 mm 6 mps 735 mmHg 34%

    3 June, Wednesday

    Time Temperature Precipitation Wind Pressure Humidity
    00:00 +40°C° 0 mm 6 mps 735 mmHg 36%
    01:00 +39°C° 0 mm 6 mps 735 mmHg 39%
    02:00 +39°C° 0 mm 6 mps 735 mmHg 42%
    03:00 +38°C° 0 mm 7 mps 735 mmHg 44%
    04:00 +36°C° 0 mm 7 mps 735 mmHg 47%
    05:00 +35°C° 0 mm 8 mps 735 mmHg 50%
    06:00 +35°C° 0 mm 8 mps 736 mmHg 53%
    07:00 +37°C° 0 mm 8 mps 736 mmHg 49%
    08:00 +38°C° 0 mm 8 mps 736 mmHg 46%
    09:00 +39°C° 0 mm 8 mps 736 mmHg 42%
    10:00 +41°C° 0 mm 7 mps 736 mmHg 38%
    11:00 +42°C° 0 mm 6 mps 736 mmHg 33%
    12:00 +45°C° 0 mm 6 mps 735 mmHg 28%
    13:00 +46°C° 0 mm 5 mps 735 mmHg 26%
    14:00 +45°C° 0 mm 3 mps 734 mmHg 23%
    15:00 +46°C° 0 mm 2 mps 733 mmHg 21%
    16:00 +46°C° 0 mm 2 mps 733 mmHg 20%
    17:00 +46°C° 0 mm 2 mps 733 mmHg 19%
    18:00 +46°C° 0 mm 2 mps 733 mmHg 19%
    19:00 +44°C° 0 mm 3 mps 733 mmHg 21%
    20:00 +43°C° 0 mm 4 mps 734 mmHg 23%
    21:00 +42°C° 0 mm 5 mps 735 mmHg 25%
    22:00 +40°C° 0.8 mm 6 mps 735 mmHg 29%
    23:00 +39°C° 0.8 mm 6 mps 735 mmHg 34%
    Show more